STARLINK-32436

Last updated on Mon Oct 21 2024 00:02:04 GMT+0000 (Coordinated Universal Time)

1 61215U 24171R 24294.58334491 .00067550 00000+0 20040-2 0 9998 2 61215 53.1601 150.3560 0001352 87.0471 137.1148 15.34217571 6008
UTC large
Height (km)
Speed (km/s)
/
Latitude / Longitude
Inclination (degrees)
Orbital Period (minutes)
Azimuth
Elevation
Range (km)
Doppler Factor

Next 0 passes for location: London (51.5072 / 0.1276)

Sorry there are no passes over London.